TRA35G EHRD-LIRF

Flight info

Callsign TRA35G
Flight time 1h 48m
Altitude 37000
Route LUNIX Z739 MISGO DCT ASBON DCT TUSUK DCT BATUB DCT TIRUL M738 NATAG DCT LORLO DCT ADOSA DCT PETAS DCT GAVRA/N0340F190 Y345 RITEB
Aircraft B738/M-SDE2E3FGHIJ1RWXYZ/LB1

Departure

Time 2026-02-20 07:52
Airport Rotterdam The Hague Airport (EHRD)

Arrival

Time 2026-02-20 09:40
Airport Rome–Fiumicino Leonardo da Vinci International Airport (LIRF)
Time Latitude Longitude Altitude Speed Heading
2026-02-20 07:18 51.95088 4.43429 -7 ft 0 kts 327°
2026-02-20 07:45 51.95091 4.43427 -34 ft 2 kts 327°
2026-02-20 07:45 51.95108 4.43408 -7 ft 4 kts 327°
2026-02-20 07:46 51.95133 4.43418 -6 ft 4 kts 44°
2026-02-20 07:46 51.95150 4.43457 -6 ft 5 kts 57°
2026-02-20 07:46 51.95170 4.43507 -6 ft 6 kts 57°
2026-02-20 07:46 51.95200 4.43550 -6 ft 6 kts
2026-02-20 07:47 51.95236 4.43518 -6 ft 6 kts 327°
2026-02-20 07:47 51.95275 4.43511 -6 ft 6 kts 18°
2026-02-20 07:47 51.95308 4.43567 -6 ft 9 kts 57°
2026-02-20 07:47 51.95349 4.43670 -6 ft 13 kts 57°
2026-02-20 07:48 51.95407 4.43815 -6 ft 17 kts 57°
2026-02-20 07:48 51.95469 4.43969 -6 ft 16 kts 57°
2026-02-20 07:48 51.95529 4.44117 -6 ft 15 kts 57°
2026-02-20 07:48 51.95586 4.44260 -6 ft 15 kts 57°
2026-02-20 07:49 51.95641 4.44397 -6 ft 14 kts 57°
2026-02-20 07:49 51.95693 4.44527 -6 ft 14 kts 57°
2026-02-20 07:49 51.95743 4.44652 -6 ft 13 kts 57°
2026-02-20 07:49 51.95794 4.44779 -6 ft 14 kts 57°
2026-02-20 07:50 51.95853 4.44926 -6 ft 17 kts 57°
2026-02-20 07:50 51.95918 4.45089 -6 ft 17 kts 57°
2026-02-20 07:50 51.95982 4.45248 -6 ft 17 kts 57°
2026-02-20 07:50 51.96043 4.45402 -6 ft 16 kts 57°
2026-02-20 07:51 51.96102 4.45549 -6 ft 15 kts 57°
2026-02-20 07:51 51.96166 4.45650 -6 ft 12 kts 13°
2026-02-20 07:51 51.96233 4.45579 -6 ft 12 kts 306°
2026-02-20 07:51 51.96255 4.45453 -6 ft 12 kts 258°
2026-02-20 07:52 51.96175 4.45240 -6 ft 50 kts 237°
2026-02-20 07:52 51.95845 4.44414 -6 ft 122 kts 237°
2026-02-20 07:52 51.95298 4.43042 278 ft 152 kts 237°
2026-02-20 07:52 51.94733 4.41613 1183 ft 151 kts 242°
2026-02-20 07:53 51.94566 4.39853 1650 ft 178 kts 284°
2026-02-20 07:53 51.95342 4.38111 1924 ft 211 kts 323°
2026-02-20 07:53 51.96818 4.37482 2451 ft 234 kts
2026-02-20 07:53 51.98339 4.38575 3157 ft 250 kts 41°
2026-02-20 07:54 51.99536 4.40632 4096 ft 251 kts 46°
2026-02-20 07:54 52.00328 4.42576 4786 ft 256 kts 72°
2026-02-20 07:54 52.00670 4.45494 5326 ft 273 kts 82°
2026-02-20 07:54 52.00971 4.48550 6069 ft 281 kts 81°
2026-02-20 07:55 52.01290 4.51743 6902 ft 286 kts 81°
2026-02-20 07:55 52.01604 4.54912 7688 ft 290 kts 81°
2026-02-20 07:55 52.01920 4.58175 8547 ft 294 kts 81°
2026-02-20 07:55 52.02102 4.61494 9419 ft 297 kts 96°
2026-02-20 07:56 52.01798 4.64825 10245 ft 300 kts 101°
2026-02-20 07:56 52.01396 4.68247 10629 ft 321 kts 102°
2026-02-20 07:56 52.00954 4.71916 10979 ft 340 kts 101°
2026-02-20 07:56 52.00502 4.75737 11629 ft 348 kts 101°
2026-02-20 07:57 52.00052 4.79622 12384 ft 353 kts 100°
2026-02-20 07:57 51.99603 4.83570 13120 ft 359 kts 99°
2026-02-20 07:57 51.99154 4.87585 13841 ft 365 kts 99°
2026-02-20 07:57 51.98701 4.91669 14509 ft 370 kts 99°
2026-02-20 07:58 51.98247 4.95787 15270 ft 371 kts 98°
2026-02-20 07:58 51.97791 4.99917 16013 ft 374 kts 98°
2026-02-20 07:58 51.97329 5.04092 16725 ft 377 kts 98°
2026-02-20 07:58 51.96864 5.08289 17436 ft 380 kts 97°
2026-02-20 07:59 51.96393 5.12531 18152 ft 384 kts 97°
2026-02-20 07:59 51.95916 5.16810 18783 ft 387 kts 97°
2026-02-20 07:59 51.95432 5.21130 19371 ft 391 kts 97°
2026-02-20 07:59 51.94944 5.25478 19957 ft 394 kts 97°
2026-02-20 08:00 51.94449 5.29874 20536 ft 398 kts 97°
2026-02-20 08:00 51.93947 5.34311 21110 ft 402 kts 97°
2026-02-20 08:00 51.93439 5.38786 21676 ft 406 kts 97°
2026-02-20 08:00 51.92923 5.43310 22231 ft 410 kts 97°
2026-02-20 08:01 51.92409 5.47808 22768 ft 414 kts 97°
2026-02-20 08:01 51.91880 5.52411 23318 ft 418 kts 97°
2026-02-20 08:01 51.91344 5.57067 23833 ft 421 kts 97°
2026-02-20 08:01 51.90802 5.61754 24268 ft 425 kts 97°
2026-02-20 08:02 51.90253 5.66482 24690 ft 429 kts 97°
2026-02-20 08:02 51.89699 5.71242 25119 ft 432 kts 97°
2026-02-20 08:02 51.89138 5.76042 25543 ft 436 kts 97°
2026-02-20 08:02 51.88570 5.80879 25963 ft 439 kts 97°
2026-02-20 08:03 51.87997 5.85747 26362 ft 442 kts 97°
2026-02-20 08:03 51.87419 5.90657 26757 ft 446 kts 97°
2026-02-20 08:03 51.86832 5.95601 27156 ft 449 kts 97°
2026-02-20 08:03 51.86172 6.00571 27543 ft 455 kts 103°
2026-02-20 08:04 51.85040 6.05392 27932 ft 462 kts 114°
2026-02-20 08:04 51.83430 6.09912 28344 ft 467 kts 123°
2026-02-20 08:04 51.81367 6.13990 28721 ft 471 kts 131°
2026-02-20 08:04 51.79129 6.17893 29083 ft 474 kts 132°
2026-02-20 08:05 51.76921 6.21783 29419 ft 477 kts 131°
2026-02-20 08:05 51.74700 6.25786 29760 ft 480 kts 130°
2026-02-20 08:05 51.72480 6.29841 30100 ft 483 kts 130°
2026-02-20 08:05 51.70255 6.33921 30391 ft 486 kts 130°
2026-02-20 08:06 51.68014 6.38022 30663 ft 489 kts 130°
2026-02-20 08:06 51.65758 6.42130 30928 ft 491 kts 130°
2026-02-20 08:06 51.63480 6.46263 31193 ft 494 kts 130°
2026-02-20 08:06 51.61192 6.50405 31440 ft 496 kts 130°
2026-02-20 08:07 51.58894 6.54557 31687 ft 499 kts 130°
2026-02-20 08:07 51.56580 6.58734 31968 ft 500 kts 130°
2026-02-20 08:07 51.54264 6.62909 32324 ft 500 kts 131°
2026-02-20 08:07 51.51950 6.67076 32681 ft 500 kts 131°
2026-02-20 08:08 51.49634 6.71240 32993 ft 501 kts 131°
2026-02-20 08:08 51.47310 6.75413 33290 ft 501 kts 131°
2026-02-20 08:08 51.44985 6.79583 33607 ft 502 kts 131°
2026-02-20 08:08 51.42657 6.83745 33929 ft 502 kts 131°
2026-02-20 08:09 51.40185 6.87694 34198 ft 503 kts 139°
2026-02-20 08:09 51.37384 6.91042 34446 ft 502 kts 149°
2026-02-20 08:09 51.34426 6.94012 34767 ft 500 kts 150°
2026-02-20 08:09 51.31457 6.96907 35098 ft 499 kts 150°
2026-02-20 08:10 51.28495 6.99787 35387 ft 498 kts 150°
2026-02-20 08:10 51.25534 7.02685 35641 ft 498 kts 150°
2026-02-20 08:10 51.22592 7.05593 35909 ft 497 kts 149°
2026-02-20 08:10 51.19659 7.08511 36196 ft 496 kts 149°
2026-02-20 08:11 51.16731 7.11434 36455 ft 496 kts 149°
2026-02-20 08:11 51.13807 7.14354 36699 ft 496 kts 149°
2026-02-20 08:11 51.10925 7.17230 36941 ft 496 kts 149°
2026-02-20 08:11 51.08003 7.20139 37183 ft 495 kts 149°
2026-02-20 08:12 51.02114 7.25983 37185 ft 500 kts 149°
2026-02-20 08:12 50.96223 7.31810 37174 ft 496 kts 149°
2026-02-20 08:13 50.90382 7.37571 37175 ft 493 kts 149°
2026-02-20 08:13 50.84563 7.43291 37179 ft 492 kts 149°
2026-02-20 08:14 50.78745 7.48996 37186 ft 491 kts 149°
2026-02-20 08:14 50.72933 7.54677 37193 ft 492 kts 149°
2026-02-20 08:15 50.67157 7.60516 37180 ft 493 kts 147°
2026-02-20 08:15 50.61429 7.66506 37183 ft 496 kts 147°
2026-02-20 08:16 50.55658 7.72510 37178 ft 498 kts 147°
2026-02-20 08:16 50.49856 7.78491 37189 ft 500 kts 147°
2026-02-20 08:17 50.44021 7.84474 37193 ft 502 kts 147°
2026-02-20 08:17 50.38160 7.90466 37210 ft 504 kts 147°
2026-02-20 08:18 50.32279 7.96463 37204 ft 505 kts 147°
2026-02-20 08:18 50.27382 8.01444 37211 ft 505 kts 147°
2026-02-20 08:19 50.20620 8.08303 37217 ft 505 kts 147°
2026-02-20 08:19 50.14729 8.14255 37220 ft 505 kts 148°
2026-02-20 08:20 50.09530 8.18478 37238 ft 502 kts 157°
2026-02-20 08:20 50.03128 8.22845 37226 ft 502 kts 158°
2026-02-20 08:21 49.96729 8.27158 37233 ft 501 kts 158°
2026-02-20 08:21 49.90386 8.31498 37223 ft 501 kts 157°
2026-02-20 08:22 49.83968 8.35923 37215 ft 501 kts 157°
2026-02-20 08:22 49.77642 8.40281 37209 ft 501 kts 156°
2026-02-20 08:23 49.71233 8.44680 37204 ft 501 kts 156°
2026-02-20 08:23 49.64861 8.49037 37205 ft 501 kts 156°
2026-02-20 08:24 49.58486 8.53383 37210 ft 501 kts 156°
2026-02-20 08:24 49.52112 8.57717 37212 ft 501 kts 156°
2026-02-20 08:25 49.45734 8.62040 37214 ft 501 kts 156°
2026-02-20 08:25 49.39389 8.66329 37208 ft 501 kts 156°
2026-02-20 08:26 49.32993 8.70640 37206 ft 501 kts 156°
2026-02-20 08:26 49.26605 8.74934 37189 ft 501 kts 155°
2026-02-20 08:27 49.20206 8.79223 37179 ft 501 kts 155°
2026-02-20 08:27 49.13859 8.83464 37173 ft 501 kts 155°
2026-02-20 08:28 49.07464 8.87727 37172 ft 501 kts 155°
2026-02-20 08:28 49.01072 8.91975 37173 ft 501 kts 155°
2026-02-20 08:29 48.94676 8.96213 37169 ft 500 kts 155°
2026-02-20 08:29 48.88287 9.00435 37175 ft 500 kts 155°
2026-02-20 08:30 48.81942 9.04617 37174 ft 500 kts 155°
2026-02-20 08:30 48.75554 9.08815 37182 ft 500 kts 155°
2026-02-20 08:31 48.69168 9.13000 37184 ft 499 kts 155°
2026-02-20 08:31 48.62787 9.17171 37185 ft 499 kts 154°
2026-02-20 08:32 48.56407 9.21329 37177 ft 499 kts 154°
2026-02-20 08:33 48.46835 9.27546 37169 ft 500 kts 154°
2026-02-20 08:33 48.40439 9.31686 37162 ft 500 kts 154°
2026-02-20 08:34 48.34044 9.35815 37157 ft 500 kts 154°
2026-02-20 08:34 48.27688 9.39907 37163 ft 500 kts 154°
2026-02-20 08:35 48.18087 9.46067 37171 ft 501 kts 154°
2026-02-20 08:35 48.11679 9.50165 37177 ft 501 kts 154°
2026-02-20 08:36 48.05343 9.54208 37168 ft 501 kts 154°
2026-02-20 08:36 47.99185 9.58923 37167 ft 495 kts 142°
2026-02-20 08:37 47.93540 9.64758 37170 ft 493 kts 140°
2026-02-20 08:37 47.88143 9.70406 37184 ft 494 kts 141°
2026-02-20 08:38 47.82489 9.76221 37175 ft 494 kts 141°
2026-02-20 08:38 47.76815 9.81986 37175 ft 493 kts 141°
2026-02-20 08:39 47.71133 9.87730 37168 ft 493 kts 141°
2026-02-20 08:39 47.65473 9.93442 37161 ft 492 kts 141°
2026-02-20 08:40 47.59810 9.99144 37166 ft 491 kts 141°
2026-02-20 08:40 47.54197 10.04783 37150 ft 490 kts 142°
2026-02-20 08:41 47.48557 10.10434 37138 ft 489 kts 142°
2026-02-20 08:41 47.42924 10.16063 37132 ft 487 kts 142°
2026-02-20 08:42 47.37319 10.21649 37123 ft 486 kts 142°
2026-02-20 08:42 47.31707 10.27229 37122 ft 487 kts 142°
2026-02-20 08:43 47.26083 10.32806 37105 ft 487 kts 142°
2026-02-20 08:43 47.20453 10.38374 37097 ft 488 kts 142°
2026-02-20 08:44 47.14854 10.43897 37072 ft 487 kts 142°
2026-02-20 08:44 47.09227 10.49435 37065 ft 487 kts 142°
2026-02-20 08:45 47.03260 10.54196 37048 ft 492 kts 159°
2026-02-20 08:45 46.96701 10.57090 37054 ft 493 kts 162°
2026-02-20 08:46 46.90079 10.59955 37040 ft 493 kts 161°
2026-02-20 08:46 46.83529 10.62916 37000 ft 492 kts 161°
2026-02-20 08:47 46.77026 10.65833 36974 ft 492 kts 162°
2026-02-20 08:47 46.70464 10.68637 36961 ft 491 kts 165°
2026-02-20 08:48 46.63805 10.70849 36922 ft 491 kts 167°
2026-02-20 08:48 46.57136 10.72932 36898 ft 490 kts 167°
2026-02-20 08:49 46.50477 10.75052 36857 ft 489 kts 167°
2026-02-20 08:49 46.43909 10.77178 36815 ft 489 kts 167°
2026-02-20 08:50 46.37280 10.79330 36815 ft 488 kts 167°
2026-02-20 08:50 46.30647 10.81476 36788 ft 487 kts 167°
2026-02-20 08:51 46.24033 10.83609 36786 ft 487 kts 167°
2026-02-20 08:51 46.17416 10.85737 36788 ft 486 kts 167°
2026-02-20 08:52 46.10809 10.87856 36768 ft 486 kts 167°
2026-02-20 08:52 46.04212 10.89966 36759 ft 485 kts 167°
2026-02-20 08:53 45.97656 10.92059 36756 ft 485 kts 167°
2026-02-20 08:53 45.91058 10.94160 36768 ft 486 kts 167°
2026-02-20 08:54 45.84456 10.96258 36774 ft 486 kts 167°
2026-02-20 08:54 45.77861 10.98348 36803 ft 486 kts 167°
2026-02-20 08:55 45.71253 11.00438 36821 ft 487 kts 167°
2026-02-20 08:55 45.64628 11.02532 36832 ft 487 kts 167°
2026-02-20 08:56 45.58086 11.05085 36847 ft 487 kts 163°
2026-02-20 08:56 45.51606 11.07917 36853 ft 487 kts 162°
2026-02-20 08:57 45.45122 11.10730 36849 ft 487 kts 163°
2026-02-20 08:57 45.38665 11.13469 36853 ft 486 kts 163°
2026-02-20 08:58 45.32174 11.16192 36850 ft 486 kts 163°
2026-02-20 08:58 45.25688 11.18903 36858 ft 485 kts 163°
2026-02-20 08:59 45.19211 11.21607 36854 ft 485 kts 163°
2026-02-20 08:59 45.12740 11.24304 36856 ft 485 kts 163°
2026-02-20 09:00 45.06269 11.26995 36852 ft 484 kts 163°
2026-02-20 09:00 44.99805 11.29676 36851 ft 484 kts 163°
2026-02-20 09:01 44.93349 11.32348 36848 ft 483 kts 163°
2026-02-20 09:01 44.86900 11.35011 36848 ft 483 kts 163°
2026-02-20 09:02 44.80443 11.37671 36869 ft 483 kts 163°
2026-02-20 09:02 44.73986 11.40324 36881 ft 483 kts 163°
2026-02-20 09:03 44.67578 11.42951 36892 ft 482 kts 164°
2026-02-20 09:03 44.61132 11.45588 36903 ft 482 kts 164°
2026-02-20 09:04 44.54678 11.48222 36903 ft 482 kts 164°
2026-02-20 09:04 44.48223 11.50851 36899 ft 483 kts 164°
2026-02-20 09:05 44.41773 11.53472 36887 ft 483 kts 164°
2026-02-20 09:05 44.36405 11.55649 36772 ft 486 kts 164°
2026-02-20 09:06 44.33151 11.56986 36495 ft 487 kts 163°
2026-02-20 09:06 44.29924 11.58425 36242 ft 484 kts 161°
2026-02-20 09:06 44.26750 11.59908 35983 ft 479 kts 161°
2026-02-20 09:06 44.23609 11.61395 35740 ft 474 kts 161°
2026-02-20 09:07 44.20487 11.62868 35504 ft 472 kts 161°
2026-02-20 09:07 44.17383 11.64319 35268 ft 469 kts 161°
2026-02-20 09:07 44.14298 11.65748 35037 ft 467 kts 161°
2026-02-20 09:07 44.11211 11.67169 34807 ft 465 kts 161°
2026-02-20 09:08 44.08139 11.68577 34533 ft 461 kts 161°
2026-02-20 09:08 44.05141 11.69949 34175 ft 458 kts 161°
2026-02-20 09:08 44.02119 11.71331 33791 ft 455 kts 161°
2026-02-20 09:08 43.99120 11.72701 33343 ft 453 kts 161°
2026-02-20 09:09 43.96135 11.74064 32927 ft 450 kts 161°
2026-02-20 09:09 43.93174 11.75415 32525 ft 447 kts 161°
2026-02-20 09:09 43.90231 11.76756 32134 ft 443 kts 161°
2026-02-20 09:09 43.87305 11.78089 31738 ft 440 kts 161°
2026-02-20 09:10 43.84402 11.79410 31358 ft 437 kts 161°
2026-02-20 09:10 43.81522 11.80719 30971 ft 434 kts 161°
2026-02-20 09:10 43.78665 11.82016 30595 ft 431 kts 161°
2026-02-20 09:10 43.75806 11.83216 30219 ft 428 kts 165°
2026-02-20 09:11 43.72928 11.84202 29861 ft 424 kts 166°
2026-02-20 09:11 43.70063 11.85086 29434 ft 420 kts 167°
2026-02-20 09:11 43.67216 11.85938 29081 ft 415 kts 167°
2026-02-20 09:11 43.64412 11.86783 28712 ft 410 kts 167°
2026-02-20 09:12 43.61642 11.87631 28375 ft 405 kts 167°
2026-02-20 09:12 43.58912 11.88481 28022 ft 401 kts 167°
2026-02-20 09:12 43.56207 11.89331 27686 ft 396 kts 167°
2026-02-20 09:12 43.53571 11.90166 27347 ft 393 kts 167°
2026-02-20 09:13 43.50884 11.91019 27001 ft 389 kts 167°
2026-02-20 09:13 43.48261 11.91852 26672 ft 386 kts 167°
2026-02-20 09:13 43.45680 11.92671 26344 ft 383 kts 167°
2026-02-20 09:13 43.43091 11.93492 26025 ft 381 kts 167°
2026-02-20 09:14 43.40518 11.94307 25712 ft 379 kts 167°
2026-02-20 09:14 43.37943 11.95122 25398 ft 381 kts 167°
2026-02-20 09:14 43.35354 11.95941 25078 ft 383 kts 167°
2026-02-20 09:14 43.32757 11.96761 24760 ft 383 kts 167°
2026-02-20 09:15 43.30167 11.97579 24413 ft 381 kts 167°
2026-02-20 09:15 43.27596 11.98389 24094 ft 379 kts 167°
2026-02-20 09:15 43.25033 11.99196 23783 ft 376 kts 167°
2026-02-20 09:15 43.22489 11.99997 23464 ft 374 kts 167°
2026-02-20 09:16 43.19960 12.00793 23090 ft 372 kts 167°
2026-02-20 09:16 43.17437 12.01585 22742 ft 369 kts 168°
2026-02-20 09:16 43.14951 12.02366 22430 ft 366 kts 168°
2026-02-20 09:16 43.12477 12.03142 22107 ft 363 kts 168°
2026-02-20 09:17 43.10027 12.03910 21808 ft 360 kts 168°
2026-02-20 09:17 43.07592 12.04673 21493 ft 357 kts 168°
2026-02-20 09:17 43.05182 12.05427 21188 ft 355 kts 168°
2026-02-20 09:17 43.02774 12.06180 20885 ft 353 kts 168°
2026-02-20 09:18 43.00383 12.06927 20585 ft 351 kts 168°
2026-02-20 09:18 42.98034 12.07660 20281 ft 350 kts 168°
2026-02-20 09:18 42.95669 12.08398 19994 ft 348 kts 168°
2026-02-20 09:18 42.93311 12.09133 19702 ft 348 kts 168°
2026-02-20 09:19 42.90949 12.09868 19406 ft 347 kts 168°
2026-02-20 09:19 42.88598 12.10600 19109 ft 346 kts 169°
2026-02-20 09:19 42.86260 12.11327 18820 ft 346 kts 169°
2026-02-20 09:19 42.83913 12.12056 18525 ft 345 kts 169°
2026-02-20 09:20 42.81567 12.12784 18228 ft 345 kts 169°
2026-02-20 09:20 42.79228 12.13510 17942 ft 345 kts 169°
2026-02-20 09:20 42.76905 12.14231 17623 ft 340 kts 169°
2026-02-20 09:20 42.74595 12.14947 17174 ft 341 kts 169°
2026-02-20 09:21 42.72287 12.15661 16819 ft 339 kts 169°
2026-02-20 09:21 42.69999 12.16411 16476 ft 337 kts 166°
2026-02-20 09:21 42.67707 12.16993 16086 ft 335 kts 178°
2026-02-20 09:21 42.65386 12.17108 15703 ft 333 kts 182°
2026-02-20 09:22 42.63060 12.17102 15213 ft 336 kts 182°
2026-02-20 09:22 42.60703 12.17096 14666 ft 341 kts 182°
2026-02-20 09:22 42.58311 12.17124 14120 ft 346 kts 181°
2026-02-20 09:22 42.55885 12.17188 13585 ft 350 kts 180°
2026-02-20 09:23 42.53442 12.17279 12983 ft 354 kts 180°
2026-02-20 09:23 42.50965 12.17388 12391 ft 355 kts 179°
2026-02-20 09:23 42.48513 12.17507 11793 ft 349 kts 179°
2026-02-20 09:23 42.46100 12.17629 11222 ft 344 kts 179°
2026-02-20 09:24 42.43702 12.17751 10769 ft 344 kts 179°
2026-02-20 09:24 42.41327 12.17874 10389 ft 338 kts 179°
2026-02-20 09:24 42.39035 12.17992 10048 ft 327 kts 179°
2026-02-20 09:24 42.36777 12.18109 9806 ft 315 kts 179°
2026-02-20 09:25 42.34633 12.18220 9551 ft 302 kts 179°
2026-02-20 09:25 42.32562 12.18326 9061 ft 301 kts 179°
2026-02-20 09:25 42.30475 12.18432 8631 ft 300 kts 179°
2026-02-20 09:25 42.28384 12.18538 8180 ft 300 kts 178°
2026-02-20 09:26 42.26313 12.18644 7761 ft 298 kts 178°
2026-02-20 09:26 42.24240 12.18750 7456 ft 289 kts 178°
2026-02-20 09:26 42.22291 12.18850 7197 ft 280 kts 178°
2026-02-20 09:26 42.20375 12.18948 6939 ft 272 kts 178°
2026-02-20 09:27 42.18517 12.19043 6724 ft 262 kts 178°
2026-02-20 09:27 42.16737 12.19133 6442 ft 251 kts 178°
2026-02-20 09:27 42.15016 12.19204 6079 ft 242 kts 182°
2026-02-20 09:27 42.13392 12.18868 5728 ft 232 kts 194°
2026-02-20 09:28 42.11858 12.18332 5350 ft 224 kts 202°
2026-02-20 09:28 42.10471 12.17490 5081 ft 214 kts 208°
2026-02-20 09:28 42.09135 12.16620 4808 ft 211 kts 209°
2026-02-20 09:28 42.07821 12.15770 4551 ft 208 kts 209°
2026-02-20 09:29 42.06527 12.14956 4301 ft 205 kts 202°
2026-02-20 09:29 42.05139 12.14988 4062 ft 203 kts 154°
2026-02-20 09:29 42.04050 12.16136 3951 ft 199 kts 136°
2026-02-20 09:29 42.02996 12.17372 3793 ft 203 kts 138°
2026-02-20 09:30 42.01904 12.18604 3588 ft 205 kts 137°
2026-02-20 09:30 42.00671 12.19507 3373 ft 203 kts 165°
2026-02-20 09:30 41.99302 12.19976 3059 ft 202 kts 162°
2026-02-20 09:30 41.97993 12.20528 2806 ft 194 kts 162°
2026-02-20 09:31 41.96724 12.21060 2503 ft 188 kts 162°
2026-02-20 09:31 41.95515 12.21553 2292 ft 175 kts 162°
2026-02-20 09:31 41.94393 12.22029 2015 ft 165 kts 161°
2026-02-20 09:31 41.93316 12.22502 1803 ft 164 kts 160°
2026-02-20 09:32 41.92230 12.22959 1654 ft 175 kts 159°
2026-02-20 09:32 41.91105 12.23646 2038 ft 185 kts 148°
2026-02-20 09:32 41.90346 12.25011 1992 ft 184 kts 99°
2026-02-20 09:32 41.90480 12.26675 2036 ft 182 kts 73°
2026-02-20 09:33 41.90834 12.28311 1993 ft 186 kts 59°
2026-02-20 09:33 41.91796 12.29336 2022 ft 176 kts
2026-02-20 09:33 41.92970 12.29092 2370 ft 175 kts 343°
2026-02-20 09:33 41.94145 12.28604 2477 ft 176 kts 343°
2026-02-20 09:34 41.95315 12.28142 2485 ft 177 kts 343°
2026-02-20 09:34 41.96514 12.27646 2509 ft 182 kts 344°
2026-02-20 09:34 41.97740 12.27139 2479 ft 184 kts 343°
2026-02-20 09:34 41.98969 12.26628 2490 ft 186 kts 343°
2026-02-20 09:35 42.00208 12.26116 2490 ft 186 kts 343°
2026-02-20 09:35 42.01453 12.25603 2489 ft 187 kts 342°
2026-02-20 09:35 42.02462 12.24558 2487 ft 189 kts 298°
2026-02-20 09:35 42.02582 12.22848 2494 ft 186 kts 255°
2026-02-20 09:36 42.02116 12.21273 2469 ft 181 kts 236°
2026-02-20 09:36 42.01075 12.20441 2463 ft 180 kts 187°
2026-02-20 09:36 41.99805 12.20322 2358 ft 186 kts 184°
2026-02-20 09:36 41.98520 12.20420 2248 ft 185 kts 166°
2026-02-20 09:37 41.97282 12.20864 2097 ft 182 kts 162°
2026-02-20 09:37 41.96073 12.21342 2023 ft 181 kts 163°
2026-02-20 09:37 41.94870 12.21821 2001 ft 177 kts 161°
2026-02-20 09:37 41.93724 12.22314 1890 ft 169 kts 160°
2026-02-20 09:38 41.92622 12.22787 1673 ft 166 kts 161°
2026-02-20 09:38 41.91506 12.23250 1447 ft 168 kts 160°
2026-02-20 09:38 41.90430 12.23700 1225 ft 158 kts 161°
2026-02-20 09:38 41.89411 12.24129 1022 ft 151 kts 161°
2026-02-20 09:39 41.88387 12.24559 838 ft 155 kts 161°
2026-02-20 09:39 41.87355 12.24990 648 ft 155 kts 161°
2026-02-20 09:39 41.86324 12.25423 455 ft 155 kts 161°
2026-02-20 09:39 41.85298 12.25855 237 ft 155 kts 161°
2026-02-20 09:40 41.84267 12.26289 31 ft 155 kts 161°
2026-02-20 09:40 41.83325 12.26683 11 ft 123 kts 163°
2026-02-20 09:40 41.82655 12.26964 12 ft 79 kts 162°
2026-02-20 09:40 41.82276 12.27117 9 ft 35 kts 167°
2026-02-20 09:41 41.82080 12.27138 10 ft 27 kts 185°
2026-02-20 09:41 41.81902 12.27092 10 ft 25 kts 193°
2026-02-20 09:41 41.81737 12.27048 11 ft 23 kts 184°
2026-02-20 09:41 41.81581 12.27089 11 ft 23 kts 163°
2026-02-20 09:42 41.81434 12.27151 11 ft 22 kts 162°
2026-02-20 09:42 41.81291 12.27211 11 ft 21 kts 162°
2026-02-20 09:42 41.81151 12.27269 11 ft 21 kts 162°
2026-02-20 09:43 41.80860 12.27340 12 ft 24 kts 189°
2026-02-20 09:43 41.80701 12.27293 12 ft 22 kts 207°
2026-02-20 09:43 41.80627 12.27120 13 ft 22 kts 250°
2026-02-20 09:43 41.80576 12.26934 12 ft 21 kts 250°
2026-02-20 09:44 41.80529 12.26765 15 ft 20 kts 250°
2026-02-20 09:44 41.80481 12.26590 14 ft 20 kts 250°
2026-02-20 09:44 41.80434 12.26420 14 ft 19 kts 250°
2026-02-20 09:44 41.80389 12.26256 14 ft 18 kts 250°
2026-02-20 09:45 41.80331 12.26109 13 ft 18 kts 217°
2026-02-20 09:45 41.80222 12.26038 13 ft 17 kts 205°
2026-02-20 09:45 41.80115 12.25972 14 ft 17 kts 204°
2026-02-20 09:45 41.80013 12.25909 15 ft 16 kts 205°
2026-02-20 09:46 41.79914 12.25848 13 ft 14 kts 205°
2026-02-20 09:46 41.79850 12.25830 13 ft 8 kts 159°
2026-02-20 09:46 41.79800 12.25821 13 ft 7 kts 204°
2026-02-20 09:46 41.79754 12.25792 13 ft 7 kts 205°
2026-02-20 09:47 41.79710 12.25765 13 ft 7 kts 201°
2026-02-20 09:47 41.79676 12.25798 13 ft 6 kts 116°
2026-02-20 09:47 41.79669 12.25817 13 ft 1 kts 115°